Starlink 3958

operational
NORAD ID: 52535 Int'l Des: 2022-051 Owner: SPXS Country: US Constellation: starlink
LEOCIRCULAR

About Starlink 3958

Description loading...

Live Position

Loading 3D Globe...

Upcoming Passes

Altitude History

Altitude vs Time

uPlot chart will show altitude changes over time

Two-Line Element Set

1 52535U 22051C 26033.40415406 -.00000133 00000-0 97403-5 0 9994
2 52535 53.2186 287.5274 0001442 98.4355 261.6801 15.08822341206115
Epoch: Feb 2, 2026 • Age: 21 hours

Current Status

Altitude 545.3 km
Velocity 7.60 km/s
Sub-Earth Point 53.00°N, 147.68°E
Launch Date May 13, 2022
Age 3.7 years
Type internet

Technical Details

Classification Payload
Mass 297.00 kg
Dry Mass 275.00 kg
Total Mass 297.00 kg
Length 0.20 m
Diameter 2.80 m
Span 9.00 m
Shape Box + pan
Manufacturer SPXS
Bus Type Starlink
Phase Status In Orbit
Owner/State SPXS/US

Large Constellations

Loading constellations...